"Pseudo-MPEC" for A10sWCt

Created 2020 Nov 30 18:07:03 UT using Find_Orb

Click here for an explanation of pseudo-MPECs

 
 Astrometry: 
     A10sWCt  C2020 11 30.39986902 08 48.29 +09 04 41.3    ~BUEb 17.07oVNEOCPT05
     A10sWCt  C2020 11 30.40507602 08 50.19 +09 04 11.1    ~BUEb 16.93oVNEOCPT05
     A10sWCt  C2020 11 30.40835302 08 51.41 +09 03 52.5    ~BUEb 17.18oVNEOCPT05
     A10sWCt  C2020 11 30.43660402 09 02.38 +09 01 05.4    ~BUEb 17.23oVNEOCPT05
     A10sWCt KC2020 11 30mcCZfiAstrometryLX^kI@p?Bredacted;@5ys*acdgl+_clickb595
     A10sWCt KC2020 11 30NV7;jW^iaT[0N+*q%sJR$fhSbtlJ0ZmLJ%0@nKu)6I4ttmmEFq1:595
     A10sWCt KC2020 11 30$hhered(jtc]gb1.16]:Lfor,)F[vnvek8YcGME7!bOOkg7#t=*[595
     A10sWCt KC2020 11 30F*vxvsA1w*(E1'62C?4L1!d3Y8*csPmi'Fed,eajexplanationG595
     A10sWCt KC2020 11 30`!(whKpx'X;kTE.(P!qW!71eCPMhxgC1,54*F17T1E\a.rE)AB3H595

Station data:
(595) Farra d'Isonzo  (N45.915734 E13.525780)  Italy.  Observers L.
   Bittesini, F. Fabris, E. Pettarin, F. Piani. Measurer E. Pettarin. 0.30-m
   f/4.5 reflector + CCD.
(T05) ATLAS-HKO, Haleakala  (N20.707573 W156.257010)  US/Hawaii.  Observers
   L. Denneau, A. Heinze, H. Weiland, J. Tonry, H. Flewelling, A.
   Fitzsimmons, D. Young, B. Stalder. Measurers L. Denneau, A. Heinze, J.
   Tonry. 0.5-m f/2.0 Schmidt + CCD.

Orbital elements:  A10sWCt
   Perihelion 2020 Dec 26.430788 +/- 0.0278 TT = 10:20:20 (JD 2459209.930788)
Epoch 2020 Dec  1.0 TT = JDT 2459184.5   Earth MOID: 0.0019   Ma: 0.0388
M 351.66230182 +/- 0.24             (J2000 ecliptic)          AutoNEOCP
n   0.32785842 +/- 0.0095           Peri.  218.05786 +/- 0.19
a   2.08294827 +/- 0.0403           Node   243.40177 +/- 0.09
e   0.5487991 +/- 0.00915           Incl.    0.78612 +/- 0.015
P   3.01                   H 25.1   G  0.15   U  9.6  
q 0.93982794 +/- 0.000914    Q 3.22606861 +/- 0.0822
From 9 observations 2020 Nov. 30 (8.3 hr); mean residual 0".20
Residuals in arcseconds: 
201130 T05  .23+  .08+    201130 T05  .02-  .27-    201130 595  .24+  .04-    
201130 T05  .09-  .11-    201130 595  .11+  .10-    201130 595  .04+  .08+    
201130 T05  .12-  .27+    201130 595  .48-  .33+    201130 595  .09+  .24-    

Ephemerides (geocentric):
Date (UTC) HH   RA              Dec         delta   r     elong  mag " sig PA
---- -- -- --  -------------   -----------  ------ ------ -----  --- ---- ---
2020 11 30 18  02 12 49.194   +08 30 34.02  .01398 0.9975 144.9 17.2 1.97 140
2020 11 30 19  02 13 20.030   +08 25 38.16  .01377 0.9974 145.0 17.2 2.56 135
2020 11 30 20  02 13 51.836   +08 20 32.84  .01355 0.9972 145.0 17.1 3.25 131
2020 11 30 21  02 14 24.659   +08 15 17.59  .01334 0.9970 145.0 17.1 4.04 129
2020 11 30 22  02 14 58.546   +08 09 51.93  .01312 0.9968 145.1 17.1 4.95 127
2020 11 30 23  02 15 33.549   +08 04 15.33  .01291 0.9967 145.1 17.0 5.97 126
2020 12 01 00  02 16 09.724   +07 58 27.23  .01270 0.9965 145.2 17.0 7.12 125
2020 12 01 01  02 16 47.128   +07 52 27.06  .01248 0.9963 145.2 17.0 8.41 124
2020 12 01 02  02 17 25.826   +07 46 14.16  .01227 0.9961 145.3 16.9 9.85 124
2020 12 01 03  02 18 05.883   +07 39 47.87  .01205 0.9959 145.3 16.9 11.5 123
2020 12 01 04  02 18 47.372   +07 33 07.45  .01184 0.9958 145.4 16.8 13.2 123
2020 12 01 05  02 19 30.369   +07 26 12.14  .01163 0.9956 145.4 16.8 15.2 123
2020 12 01 06  02 20 14.956   +07 19 01.08  .01141 0.9954 145.5 16.8 17.4 123
2020 12 01 07  02 21 01.222   +07 11 33.38  .01120 0.9952 145.6 16.7 19.8 122
2020 12 01 08  02 21 49.262   +07 03 48.09  .01099 0.9951 145.6 16.7 22.5 122
2020 12 01 09  02 22 39.178   +06 55 44.14  .01078 0.9949 145.7 16.6 25.4 122
2020 12 01 10  02 23 31.081   +06 47 20.43  .01056 0.9947 145.8 16.6 28.7 122
2020 12 01 11  02 24 25.088   +06 38 35.74  .01035 0.9945 145.9 16.5 32.3 122
2020 12 01 12  02 25 21.329   +06 29 28.75  .01014 0.9944 146.0 16.5 36.2 122
2020 12 01 13  02 26 19.942   +06 19 58.06  .00993 0.9942 146.1 16.4 40.6 122
2020 12 01 14  02 27 21.078   +06 10 02.11  .00972 0.9940 146.1 16.4 45.4 122
2020 12 01 15  02 28 24.900   +05 59 39.24  .00950 0.9938 146.2 16.3 50.7 122
2020 12 01 16  02 29 31.586   +05 48 47.62  .00929 0.9937 146.3 16.3 56.6 122
2020 12 01 17  02 30 41.329   +05 37 25.28  .00908 0.9935 146.4 16.2 63.0 122
2020 12 01 18  02 31 54.341   +05 25 30.06  .00887 0.9933 146.6 16.2 70.2 122
2020 12 01 19  02 33 10.850   +05 12 59.60  .00866 0.9932 146.7 16.1 78.0 122
2020 12 01 20  02 34 31.111   +04 59 51.30  .00845 0.9930 146.8 16.1 86.8 122
2020 12 01 21  02 35 55.398   +04 46 02.35  .00824 0.9928 146.9 16.0 96.4 122
2020 12 01 22  02 37 24.016   +04 31 29.64  .00803 0.9926 147.0 15.9  107 122
2020 12 01 23  02 38 57.299   +04 16 09.74  .00783 0.9925 147.2 15.9  119 122
2020 12 02 00  02 40 35.616   +03 59 58.89  .00762 0.9923 147.3 15.8  132 123
2020 12 02 01  02 42 19.374   +03 42 52.93  .00741 0.9921 147.5 15.8  147 123
2020 12 02 02  02 44 09.026   +03 24 47.26  .00720 0.9919 147.6 15.7  163 123
2020 12 02 03  02 46 05.073   +03 05 36.80  .00700 0.9918 147.7 15.6  181 123
2020 12 02 04  02 48 08.074   +02 45 15.90  .00679 0.9916 147.9 15.6  201 123
2020 12 02 05  02 50 18.652   +02 23 38.27  985614 0.9914 148.0 15.5  224 123
2020 12 02 06  02 52 37.503   +02 00 36.93  955160 0.9913 148.2 15.4  249 123
2020 12 02 07  02 55 05.410   +01 36 04.09  924850 0.9911 148.4 15.3  277 123
2020 12 02 08  02 57 43.251   +01 09 51.06  894698 0.9909 148.5 15.3  309 123
2020 12 02 09  03 00 32.019   +00 41 48.10  864722 0.9908 148.7 15.2  345 123
2020 12 02 10  03 03 32.833   +00 11 44.34  834941 0.9906 148.8 15.1  385 123
2020 12 02 11  03 06 46.963   -00 20 32.40  805376 0.9904 148.9 15.0  431 123
2020 12 02 12  03 10 15.855   -00 55 15.76  776052 0.9902 149.0 14.9  482 123
2020 12 02 13  03 14 01.152   -01 32 41.00  746998 0.9901 149.1 14.8  541 123
2020 12 02 14  03 18 04.737   -02 13 05.19  718247 .98991 149.2 14.8  607 123
2020 12 02 15  03 22 28.763   -02 56 47.35  689838 .98974 149.2 14.7  683 123
2020 12 02 16  03 27 15.702   -03 44 08.60  661814 .98957 149.2 14.6  769 123
2020 12 02 17  03 32 28.396   -04 35 32.27  634227 .98940 149.1 14.5  868 123